Regional Weather Roundup
Issued by NWS Cleveland, OH

Home | Current Version | Previous Version | Graphics & Text | Print | Product List | Glossary On
Versions: 1 2 3 4 5 6 7 8 9 10 11 12 13 14 15 16 17 18 19 20 21 22 23 24 25 26 27 28 29 30 31 32 33 34 35 36 37 38 39 40 41 42 43 44 45 46 47 48 49 50
000
ASUS41 KCLE 022000
RWRCLE
OHIO REGIONAL WEATHER ROUNDUP
NATIONAL WEATHER SERVICE WILMINGTON, OH
400 PM EDT WED SEP 02 2015

NOTE: "FAIR" INDICATES FEW OR NO CLOUDS BELOW 12,000 FEET WITH NO
SIGNIFICANT WEATHER AND/OR OBSTRUCTIONS TO VISIBILITY.

OHZ001>008-015>018-024>027-034-035-043-044-022100-
   NORTHWEST OHIO

CITY           SKY/WX    TMP DP  RH WIND       PRES   REMARKS
DEFIANCE       SUNNY     91  66  43 W8        30.00F HX  93
FINDLAY        MOSUNNY   89  71  55 SW12      30.00F HX  95
TOLEDO EXPRESS CLOUDY    72  68  87 SE9       30.00F
TOLEDO EXEC    MOSUNNY   86  70  58 SW7       30.00F HX  90
LIMA           PTSUNNY   87  69  54 SW13      30.03F HX  91
$$

OHZ009>014-019>023-028>033-038-089-022100-
   NORTHEAST OHIO

CITY           SKY/WX    TMP DP  RH WIND       PRES   REMARKS
CLE-HOPKINS    MOSUNNY   88  70  55 W12       30.02F HX  93
CLE-LAKEFRONT  SUNNY     81  71  71 NW3       29.99F
CUY CO. ARPT   PTSUNNY   86  73  66 NW12      30.02F HX  93
LORAIN-ELYRIA  MOSUNNY   87  69  54 W8        30.01F HX  91
ASHTABULA      SUNNY     84  69  60 W12       30.02F
AKRON-CANTON   PTSUNNY   87  65  47 NW5       30.02F
WOOSTER        NOT AVBL
MANSFIELD      PTSUNNY   82  69  64 SW7       30.06F
YOUNGSTOWN     MOSUNNY   88  64  44 NW9       30.02F
$$

OHZ042-051>053-060>062-070>072-077>081-022100-
  SOUTHWEST OHIO

CITY           SKY/WX    TMP DP  RH WIND       PRES   REMARKS
CINC-COVINGTON MOSUNNY   89  67  47 W6        30.06F HX  92
CINC-LUNKEN    PTSUNNY   89  67  47 VRB5      30.03F HX  92
HAMILTON       SUNNY     90  69  50 W8        30.05F HX  94
DAYTON         PTSUNNY   86  67  52 W12       30.06F THUNDER
WRIGHT-PAT AFB NOT AVBL
DAYTON GENERAL PTSUNNY   83  70  64 S7        30.05F
WILMINGTON     LGT RAIN  73  68  84 SW7       30.06F
$$

OHZ036-037-039>041-045>050-054>059-063>069-073>076-082>088-022100-
  CENTRAL AND SOUTHEAST OHIO

CITY           SKY/WX    TMP DP  RH WIND       PRES   REMARKS
COLUMBUS       LGT RAIN  80  71  74 W8G24     30.04F
OSU AIRPORT    PTSUNNY   76  67  73 NE14G24   30.06S THUNDER
BOLTON FIELD   MOSUNNY   84  73  70 SW9       30.06F HX  91
RICKENBACK AFB NOT AVBL
NEWARK         MOSUNNY   84  69  60 W7        30.04F
MARION         MOSUNNY   81  69  67 S7        30.04F
LANCASTER      MOSUNNY   86  68  54 W7        30.05F
ZANESVILLE     SUNNY     90  62  39 NW12      30.03F HX  90
NEW PHILLY     MOSUNNY   89  67  47 W9        30.03F HX  92
$$


USA.gov is the U.S. government's official web portal to all federal, state and local government web resources and services.